Location: *
(43.9905°S, 176.4941°W)
Time: 21:21:24
(UTC+00:00)

SL-24 R/B - RUBIN 2 - Pass Details

Date: 08 December 2019
Orbit: 574 x 1021 km, 64.6° (Epoch: 28 January)

Event Time Altitude Azimuth Distance (km) Brightness Sun altitude
Rises 11:27:12 0° 219° (SW) 2,954 7.9 -23.3°
Reaches altitude 10° 11:29:35 10° 222° (SW) 1,994 6.8 -23.3°
Enters shadow 11:33:33 55° 277° (W) 718 3.7 -23.3°
